sat.trackr.live / text

‹ back to catalog

GSAT0220 (GALILEO 24)

NORAD 43567 · 2018-060D

PAYLOAD ACTIVE UNKNOWN

§ Identity

Operator
Country
ESA
Launch date
2018-07-25
Launch site
FRGUI
Launch vehicle
Mass (kg)
RCS (m²)

Purposes: earth_obs, nav

External: N2YO · Heavens-Above · Gunter

§ Orbital elements

Epoch: 2026-09-10T04:40:15.337344Z

Period
844.69 min
Inclination
57.1370°
Eccentricity
0.0003677
Mean motion
1.70475942 rev/d
Perigee alt
23,211.1 km
Apogee alt
23,232.8 km
Semi-major
29,600.1 km
B*
0.0000e+0
RAAN
339.4905°
Arg perigee
268.4040°
Mean anomaly
91.5976°
Rev number
5,062

§ Raw data

GSAT0220 (GALILEO 24)1 43567U 18060D   26253.19462196 -.00000101  00000+0  00000+0 0  99972 43567  57.1370 339.4905 0003677 268.4040  91.5976  1.70475942 50629

JSON: /api/v1/satellites/43567 · /tle

For live sub-satellite position, see the globe view (requires WebGL).

§ Visibility from observer

Set your observer location to see the next 7 days of passes ≥ 10°. The values pass through the URL so the page stays shareable.

No JS? Fill the form by hand. The geolocation button needs JavaScript.